Date,TemperatureHighF,TemperatureAvgF,TemperatureLowF,DewpointHighF,DewpointAvgF,DewpointLowF,HumidityHigh,HumidityAvg,HumidityLow,PressureMaxIn,PressureMinIn,WindSpeedMaxMPH,WindSpeedAvgMPH,GustSpeedMaxMPH,PrecipitationSumIn
2013-1-1,49,44,39,39,31,21,87,61,39,29.74,29.56,5,1,5,0.25
2013-1-2,47,39,34,41,33,28,95,79,53,29.85,29.65,6,1,6,0.16
2013-1-3,42,34,28,30,20,16,87,58,40,29.91,29.83,6,1,6,0.00
2013-1-4,48,36,26,23,18,12,84,50,33,29.91,29.83,9,2,9,0.00
2013-1-5,52,39,29,23,17,12,53,42,29,30.06,29.88,7,1,7,0.00
2013-1-6,55,43,36,34,27,21,78,53,36,29.88,29.71,7,1,7,0.00
2013-1-7,53,40,28,28,22,18,74,50,36,30.09,29.83,12,1,12,0.00
2013-1-8,51,38,27,34,27,19,89,66,42,30.12,30.03,6,0,6,0.00
2013-1-9,71,52,35,48,40,28,85,64,37,30.06,29.94,11,1,11,0.00
2013-1-10,64,49,36,48,34,23,95,59,29,30.21,30.03,10,1,10,0.00
2013-1-11,46,41,33,46,36,23,98,82,59,30.15,29.80,5,0,5,0.13
2013-1-12,58,54,46,55,53,46,98,94,79,29.83,29.77,8,1,8,0.00
2013-1-13,73,61,55,63,56,55,98,85,53,29.80,29.71,6,1,6,0.00
2013-1-14,63,57,43,63,55,43,98,93,83,29.91,29.71,11,2,11,1.28
2013-1-15,43,41,39,43,41,39,98,98,96,29.97,29.77,10,2,10,1.33
2013-1-16,46,41,37,46,41,37,98,98,95,29.80,29.59,8,1,8,0.50
2013-1-17,47,43,33,48,43,34,98,97,89,29.77,29.65,12,2,12,0.99
2013-1-18,61,50,40,48,30,19,98,49,35,30.15,30.03,8,1,8,0.42
2013-1-19,53,42,28,25,22,18,69,45,31,30.09,29.77,8,2,8,0.25
2013-1-20,60,46,36,28,22,18,54,40,26,29.77,29.59,15,2,15,0.04
2013-1-21,57,42,25,32,19,7,81,44,26,29.77,29.47,11,2,11,0.00
2013-1-22,36,28,20,9,-1,-8,33,29,22,29.94,29.59,13,2,13,0.00
2013-1-23,36,26,11,32,4,-8,60,33,24,30.00,29.74,11,1,11,0.00
2013-1-24,32,25,13,32,4,-8,69,42,30,30.18,29.68,16,3,16,0.00
2013-1-25,44,26,11,32,19,-2,76,48,31,30.18,29.74,7,1,7,0.00
2013-1-26,41,28,18,27,15,9,80,61,40,30.09,29.74,4,0,4,0.04
2013-1-27,44,31,20,25,16,12,82,57,33,30.27,30.09,6,1,6,0.00
2013-1-28,57,42,30,41,30,14,93,64,38,30.15,29.80,10,2,10,0.08
2013-1-29,76,59,44,50,42,37,87,57,28,29.83,29.71,8,1,8,0.00
2013-1-30,71,66,59,59,55,48,84,67,54,29.71,29.09,18,4,18,0.00
2013-1-31,52,43,29,34,16,9,50,33,27,29.65,29.12,20,4,20,0.54